• In Belarus
  • List of Countries
  • For 7 days
  • Water Temperature
  • Satellite Maps
  • Weather Map
  • Weather Widgets
  • user-avatar
    Login

    Hourly Weather Top

    Today, 14 December, Friday

    Time Temperature Precipitation Wind Pressure Humidity
    00:00 +19°C° 0 mm 1 mps 686 mmHg 88%
    01:00 +15°C° 0 mm 0 mps 686 mmHg 92%
    02:00 +16°C° 0 mm 1 mps 686 mmHg 92%
    03:00 +16°C° 0 mm 1 mps 686 mmHg 92%
    04:00 +18°C° 0 mm 1 mps 686 mmHg 92%
    05:00 +18°C° 0 mm 1 mps 686 mmHg 90%
    06:00 +18°C° 0 mm 1 mps 687 mmHg 89%
    07:00 +19°C° 0 mm 1 mps 687 mmHg 84%
    08:00 +20°C° 0 mm 2 mps 687 mmHg 77%
    09:00 +23°C° 0 mm 2 mps 688 mmHg 70%
    10:00 +25°C° 0 mm 2 mps 689 mmHg 63%
    11:00 +25°C° 0 mm 3 mps 688 mmHg 62%
    12:00 +25°C° 0 mm 3 mps 688 mmHg 62%
    13:00 +26°C° 0 mm 2 mps 687 mmHg 59%
    14:00 +25°C° 0 mm 2 mps 687 mmHg 62%
    15:00 +25°C° 0 mm 2 mps 687 mmHg 66%
    16:00 +24°C° 0 mm 2 mps 686 mmHg 69%
    17:00 +23°C° 0 mm 2 mps 686 mmHg 74%
    18:00 +20°C° 0 mm 2 mps 686 mmHg 79%
    19:00 +19°C° 0 mm 2 mps 686 mmHg 83%
    20:00 +19°C° 0 mm 2 mps 686 mmHg 84%
    21:00 +19°C° 0 mm 2 mps 686 mmHg 84%
    22:00 +19°C° 0 mm 2 mps 687 mmHg 85%
    23:00 +19°C° 0 mm 2 mps 686 mmHg 85%

    Tomorrow, 15 December, Saturday

    Time Temperature Precipitation Wind Pressure Humidity
    00:00 +19°C° 0 mm 2 mps 686 mmHg 86%
    01:00 +19°C° 0 mm 2 mps 686 mmHg 86%
    02:00 +19°C° 0 mm 2 mps 686 mmHg 86%
    03:00 +19°C° 0 mm 2 mps 686 mmHg 87%
    04:00 +19°C° 0 mm 2 mps 685 mmHg 87%
    05:00 +19°C° 0 mm 2 mps 686 mmHg 87%
    06:00 +19°C° 0 mm 2 mps 686 mmHg 86%
    07:00 +20°C° 0 mm 1 mps 686 mmHg 86%
    08:00 +21°C° 0 mm 2 mps 687 mmHg 79%
    09:00 +24°C° 0 mm 2 mps 687 mmHg 72%
    10:00 +25°C° 0 mm 2 mps 688 mmHg 65%
    11:00 +26°C° 0.1 mm 2 mps 688 mmHg 65%
    12:00 +26°C° 0.1 mm 2 mps 687 mmHg 66%
    13:00 +26°C° 0.1 mm 2 mps 687 mmHg 66%
    14:00 +25°C° 0.1 mm 2 mps 686 mmHg 69%
    15:00 +24°C° 0.1 mm 2 mps 686 mmHg 73%
    16:00 +23°C° 0.1 mm 2 mps 686 mmHg 77%
    17:00 +21°C° 0.1 mm 2 mps 686 mmHg 79%
    18:00 +21°C° 0.1 mm 2 mps 686 mmHg 81%
    19:00 +21°C° 0.1 mm 1 mps 686 mmHg 83%
    20:00 +21°C° 0.1 mm 1 mps 686 mmHg 83%
    21:00 +21°C° 0.1 mm 1 mps 687 mmHg 84%
    22:00 +21°C° 0.1 mm 1 mps 687 mmHg 84%
    23:00 +21°C° 0 mm 1 mps 687 mmHg 85%

    Day after tomorrow, 16 December, Sunday

    Time Temperature Precipitation Wind Pressure Humidity
    00:00 +21°C° 0 mm 1 mps 687 mmHg 86%
    01:00 +20°C° 0 mm 1 mps 686 mmHg 87%
    02:00 +20°C° 0 mm 1 mps 686 mmHg 87%
    03:00 +20°C° 0 mm 1 mps 686 mmHg 88%
    04:00 +20°C° 0 mm 1 mps 685 mmHg 89%
    05:00 +20°C° 0 mm 1 mps 686 mmHg 88%
    06:00 +20°C° 0 mm 1 mps 686 mmHg 88%
    07:00 +20°C° 0 mm 1 mps 687 mmHg 87%
    08:00 +21°C° 0 mm 2 mps 687 mmHg 79%
    09:00 +24°C° 0 mm 2 mps 688 mmHg 71%
    10:00 +26°C° 0 mm 2 mps 689 mmHg 64%
    11:00 +27°C° 0 mm 2 mps 688 mmHg 62%
    12:00 +27°C° 0 mm 2 mps 687 mmHg 61%
    13:00 +27°C° 0 mm 3 mps 687 mmHg 59%
    14:00 +27°C° 0 mm 2 mps 686 mmHg 62%
    15:00 +26°C° 0 mm 2 mps 686 mmHg 66%
    16:00 +25°C° 0 mm 2 mps 685 mmHg 69%
    17:00 +23°C° 0 mm 2 mps 685 mmHg 74%
    18:00 +21°C° 0 mm 2 mps 686 mmHg 79%
    19:00 +21°C° 0 mm 1 mps 686 mmHg 84%
    20:00 +21°C° 0 mm 1 mps 686 mmHg 85%
    21:00 +20°C° 0 mm 1 mps 686 mmHg 86%
    22:00 +20°C° 0 mm 1 mps 687 mmHg 88%
    23:00 +20°C° 0 mm 1 mps 686 mmHg 88%

    17 December, Monday

    Time Temperature Precipitation Wind Pressure Humidity
    00:00 +20°C° 0 mm 1 mps 686 mmHg 89%
    01:00 +20°C° 0 mm 1 mps 686 mmHg 89%
    02:00 +20°C° 0 mm 1 mps 686 mmHg 89%
    03:00 +20°C° 0 mm 1 mps 685 mmHg 90%
    04:00 +19°C° 0 mm 1 mps 685 mmHg 90%
    05:00 +20°C° 0 mm 1 mps 686 mmHg 89%
    06:00 +20°C° 0 mm 1 mps 686 mmHg 88%
    07:00 +20°C° 0 mm 1 mps 686 mmHg 87%
    08:00 +21°C° 0 mm 2 mps 687 mmHg 80%
    09:00 +23°C° 0 mm 2 mps 688 mmHg 73%
    10:00 +25°C° 0 mm 2 mps 688 mmHg 66%
    11:00 +25°C° 0 mm 2 mps 688 mmHg 66%
    12:00 +25°C° 0 mm 2 mps 687 mmHg 66%
    13:00 +25°C° 0 mm 2 mps 686 mmHg 66%
    14:00 +24°C° 0.1 mm 2 mps 686 mmHg 69%
    15:00 +23°C° 0.1 mm 2 mps 685 mmHg 72%
    16:00 +21°C° 0.1 mm 2 mps 685 mmHg 75%
    17:00 +20°C° 0 mm 2 mps 685 mmHg 79%
    18:00 +19°C° 0 mm 2 mps 686 mmHg 82%
    19:00 +20°C° 0 mm 1 mps 686 mmHg 86%
    20:00 +19°C° 0 mm 1 mps 686 mmHg 87%
    21:00 +19°C° 0 mm 1 mps 686 mmHg 87%
    22:00 +19°C° 0 mm 1 mps 687 mmHg 88%
    23:00 +19°C° 0 mm 1 mps 686 mmHg 89%

    18 December, Tuesday

    Time Temperature Precipitation Wind Pressure Humidity
    00:00 +18°C° 0 mm 1 mps 686 mmHg 90%
    01:00 +18°C° 0 mm 1 mps 686 mmHg 91%
    02:00 +18°C° 0 mm 1 mps 686 mmHg 91%
    03:00 +18°C° 0 mm 1 mps 685 mmHg 91%
    04:00 +18°C° 0 mm 1 mps 685 mmHg 91%
    05:00 +18°C° 0 mm 1 mps 685 mmHg 90%
    06:00 +19°C° 0 mm 1 mps 686 mmHg 89%
    07:00 +19°C° 0 mm 1 mps 686 mmHg 88%
    08:00 +21°C° 0 mm 1 mps 687 mmHg 80%
    09:00 +22°C° 0 mm 1 mps 687 mmHg 73%
    10:00 +24°C° 0 mm 1 mps 688 mmHg 66%
    11:00 +25°C° 0 mm 1 mps 687 mmHg 63%
    12:00 +25°C° 0 mm 1 mps 687 mmHg 61%
    13:00 +26°C° 0 mm 1 mps 686 mmHg 58%
    14:00 +26°C° 0 mm 1 mps 685 mmHg 60%
    15:00 +25°C° 0 mm 1 mps 685 mmHg 62%
    16:00 +25°C° 0 mm 1 mps 685 mmHg 64%
    17:00 +23°C° 0 mm 1 mps 685 mmHg 71%
    18:00 +21°C° 0 mm 1 mps 685 mmHg 77%
    19:00 +20°C° 0 mm 1 mps 685 mmHg 84%
    20:00 +19°C° 0 mm 1 mps 686 mmHg 86%
    21:00 +19°C° 0 mm 1 mps 686 mmHg 88%
    22:00 +19°C° 0 mm 1 mps 686 mmHg 90%
    23:00 +18°C° 0 mm 1 mps 686 mmHg 91%

    19 December, Wednesday

    Time Temperature Precipitation Wind Pressure Humidity
    00:00 +18°C° 0 mm 1 mps 685 mmHg 91%
    01:00 +18°C° 0 mm 1 mps 685 mmHg 92%
    02:00 +18°C° 0 mm 1 mps 685 mmHg 93%
    03:00 +18°C° 0 mm 1 mps 685 mmHg 93%
    04:00 +18°C° 0 mm 1 mps 684 mmHg 94%
    05:00 +18°C° 0 mm 1 mps 685 mmHg 93%
    06:00 +18°C° 0 mm 1 mps 685 mmHg 92%
    07:00 +19°C° 0 mm 1 mps 686 mmHg 91%
    08:00 +21°C° 0 mm 1 mps 686 mmHg 81%
    09:00 +24°C° 0 mm 1 mps 687 mmHg 71%
    10:00 +26°C° 0 mm 1 mps 687 mmHg 61%
    11:00 +28°C° 0 mm 1 mps 687 mmHg 56%
    12:00 +28°C° 0 mm 0 mps 687 mmHg 50%
    13:00 +29°C° 0 mm 0 mps 686 mmHg 44%
    14:00 +28°C° 0 mm 0 mps 686 mmHg 47%
    15:00 +27°C° 0 mm 0 mps 685 mmHg 49%
    16:00 +29°C° 0 mm 1 mps 685 mmHg 51%
    17:00 +26°C° 0 mm 1 mps 685 mmHg 61%
    18:00 +24°C° 0 mm 1 mps 685 mmHg 71%
    19:00 +22°C° 0 mm 1 mps 685 mmHg 80%
    20:00 +21°C° 0 mm 1 mps 685 mmHg 83%
    21:00 +21°C° 0 mm 1 mps 685 mmHg 86%
    22:00 +20°C° 0 mm 1 mps 685 mmHg 89%
    23:00 +20°C° 0 mm 1 mps 685 mmHg 91%
    Show more